Location: Chiroubles
(46.1812°N, 4.6660°E)
Time: 15:30:54
(UTC+00:00)

Cosmos 1707 Rocket - Pass Details

Date: 15 August 2020
Orbit: 605 x 632 km, 82.5° (Epoch: 22 September)

Event Time Altitude Azimuth Distance (km) Brightness Sun altitude
Rises 19:47:25 0° 348° (NNW) 2,877 7.7 -9.8°
Reaches altitude 10° 19:49:39 10° 345° (NNW) 1,966 6.9 -10.1°
Maximum altitude 19:53:57 63° 264° (W) 679 4.0 -10.7°
Drops below altitude 10° 19:58:12 10° 184° (S) 1,948 5.8 -11.3°
Sets 20:00:25 0° 181° (S) 2,847 6.6 -11.7°
